Location: Newark
(40.9833°N, 0.0333°W)
Time: 17:13:47
(UTC+00:00)

Transit 4A - Pass Details

Date: 30 October 2020
Orbit: 862 x 982 km, 66.8° (Epoch: 28 November)

Event Time Altitude Azimuth Distance (km) Brightness Sun altitude
Rises 21:02:28 0° 339° (NNW) 3,694 11.5 -45.9°
Enters shadow 21:04:58 - 353° (N) 3,107 10.9 -46.3°
Reaches altitude 10° 21:07:12 10° 10° (N) 2,741 - -46.7°
Maximum altitude 21:09:28 12° 31° (NNE) 2,599 - -47.1°
Drops below altitude 10° 21:11:44 10° 52° (NE) 2,728 - -47.5°
Sets 21:16:22 0° 82° (E) 3,653 - -48.3°
